sat.trackr.live / text

‹ back to catalog

ZORKIY-2M-5

NORAD 67295 · 2025-313AZ

PAYLOAD ACTIVE UNKNOWN

§ Identity

Operator
Country
CIS
Launch date
2025-12-28
Launch site
VOSTO
Launch vehicle
Mass (kg)
RCS (m²)

External: N2YO · Heavens-Above · Gunter

§ Orbital elements

Epoch: 2026-09-20T22:35:24.813888Z

Period
94.41 min
Inclination
97.3862°
Eccentricity
0.0010324
Mean motion
15.25304774 rev/d
Perigee alt
482.8 km
Apogee alt
497.0 km
Semi-major
6,868.0 km
B*
1.7702e-4
RAAN
337.6457°
Arg perigee
18.1243°
Mean anomaly
342.0361°
Rev number
4,056

§ Raw data

ZORKIY-2M-51 67295U 25313AZ  26263.94125942  .00004391  00000+0  17702-3 0  99942 67295  97.3862 337.6457 0010324  18.1243 342.0361 15.25304774 40562

JSON: /api/v1/satellites/67295 · /tle

For live sub-satellite position, see the globe view (requires WebGL).

§ Visibility from observer

Set your observer location to see the next 7 days of passes ≥ 10°. The values pass through the URL so the page stays shareable.

No JS? Fill the form by hand. The geolocation button needs JavaScript.